Flag for Hungary Weather past 2 weeks in Szeged, Hungary

Now
71 °F

Overcast.


Feels Like: 74 °F
Forecast: 58 / 71 °F
Wind: 1 mph from Northwest

Location: Szeged

Current Time: Aug 23, 2014 at 8:15:38 PM

Latest Report: Aug 23, 2014 at 8:00 PM


Visibility: 19 mi

Pressure: 29.88 "Hg

Humidity: 70%

Dew point: 61 °F

Location of SzegedLocation

Historic Weather in Szeged — Graph

°F

Szeged temperature yesterday

Maximum temperature yesterday: 78 °F (at 5:00 PM)
Minimum temperature yesterday: 53 °F (at 6:00 AM)
Average temperature yesterday: 64 °F

Past Weeks' High & Low Weather Summary

 TemperatureHumidityPressure
High89 °F (Aug 13, 2:00 PM)96% (Aug 9, 6:00 AM)30.08 "Hg (Aug 9, 6:00 AM)
Low50 °F (Aug 18, 6:00 AM)33% (Aug 17, 6:00 PM)29.72 "Hg (Aug 14, 12:00 AM)
Average70 °F69%29.94 "Hg
* Reported Aug 8 7:00 PM — Aug 23 7:00 PM, Szeged, Weather by CustomWeather, © 2014

Note: Actual official high and low records may vary slightly from our data, if they occured in-between our weather recording intervals... More about our weather records

Advertising

Szeged weather history for previous 24 hours

 ConditionsComfort  
Time TempWeatherWind HumidityBarometerVisibility
7:00 PM
Aug 23
74 °FOvercast.1 mph62%29.87 "Hg22 mi
6:00 PM77 °FPartly sunny.1 mph51%29.88 "Hg25 mi
5:00 PM78 °FOvercast.1 mph51%29.90 "Hg19 mi
4:00 PM77 °FOvercast.1 mph53%29.91 "Hg19 mi
3:00 PM78 °FOvercast.1 mph48%29.94 "Hg19 mi
2:00 PM78 °FOvercast.1 mph45%29.96 "Hg19 mi
1:00 PM77 °FOvercast.1 mph46%29.97 "Hg22 mi
12:00 PM77 °FOvercast.1 mph45%29.99 "Hg19 mi
11:00 AM74 °FOvercast.1 mph51%29.99 "Hg19 mi
10:00 AM70 °FOvercast.No wind62%30.00 "Hg19 mi
9:00 AM67 °FOvercast.1 mph70%30.00 "Hg16 mi
8:00 AM62 °FOvercast.No wind79%30.00 "Hg16 mi
7:00 AM58 °FPartly sunny.1 mph87%29.99 "Hg12 mi
6:00 AM56 °FScattered clouds.1 mph91%30.00 "Hg9 mi
5:00 AM55 °FPassing clouds.2 mph90%30.00 "Hg9 mi
4:00 AM54 °FPassing clouds.1 mph89%30.00 "Hg12 mi
3:00 AM55 °FPassing clouds.1 mph87%30.00 "Hg12 mi
2:00 AM56 °FPassing clouds.1 mph88%30.01 "Hg12 mi
1:00 AM57 °FPassing clouds.1 mph84%30.01 "Hg12 mi
12:00 AM58 °FPassing clouds.1 mph83%30.01 "Hg19 mi
11:00 PM
Aug 22
61 °FPassing clouds.2 mph77%30.01 "Hg19 mi
10:00 PM63 °FPassing clouds.2 mph73%30.01 "Hg19 mi
9:00 PM65 °FPassing clouds.3 mph66%30.01 "Hg19 mi
8:00 PM68 °FPassing clouds.2 mph60%30.00 "Hg19 mi
Weather by CustomWeather, © 2014

See weather overviewHow to use our weather pages